sat.trackr.live / text

‹ back to catalog

STARLINK-31115

NORAD 58729 · 2024-005B

PAYLOAD ACTIVE UNKNOWN

§ Identity

Operator
Country
US
Launch date
2024-01-07
Launch site
AFETR
Launch vehicle
Mass (kg)
RCS (m²)

Purposes: comms

External: N2YO · Heavens-Above · Gunter

§ Orbital elements

Epoch: 2026-09-20T04:19:11.891136Z

Period
94.27 min
Inclination
43.0014°
Eccentricity
0.0001242
Mean motion
15.27574267 rev/d
Perigee alt
482.2 km
Apogee alt
483.9 km
Semi-major
6,861.2 km
B*
1.6667e-5
RAAN
201.7749°
Arg perigee
275.3106°
Mean anomaly
84.7604°
Rev number
15,017

§ Raw data

STARLINK-311151 58729U 24005B   26263.17999874  .00000197  00000+0  16667-4 0  99912 58729  43.0014 201.7749 0001242 275.3106  84.7604 15.27574267150177

JSON: /api/v1/satellites/58729 · /tle

For live sub-satellite position, see the globe view (requires WebGL).

§ Visibility from observer

Set your observer location to see the next 7 days of passes ≥ 10°. The values pass through the URL so the page stays shareable.

No JS? Fill the form by hand. The geolocation button needs JavaScript.